Wind_Speed
17 21 23 25 27 28 28 26 27 29 30 31 28 26 24 23 24 20 16 14 12 10 8 6 5 5 6 6 7 7 7 7 7 5 5 6 7 7 8 6 7 9 9
22 23 24 25 25 26 25 25 26 29 28 27 25 24 23 20 18 17 14 12 9 7 5 3 3 5 5 6 6 5 5 6 6 4 4 4 5 5 5 4 3 7 8
23 25 26 26 26 26 26 25 26 25 25 24 23 20 19 17 16 14 11 9 7 5 4 4 4 4 4 5 4 4 3 4 4 3 1 2 5 6 5 6 7 8 9
24 25 27 27 28 28 28 26 26 23 23 22 22 19 16 15 13 11 9 7 5 3 3 3 3 3 3 4 4 3 2 3 4 4 3 4 6 7 8 4 9 8 9
25 26 26 28 28 27 28 28 26 25 23 22 20 18 15 11 9 8 7 6 5 3 1 1 3 3 4 3 3 2 2 3 4 6 6 8 9 9 10 10 10 10 10
26 26 26 28 28 27 27 27 26 24 22 21 20 16 12 9 7 6 4 5 5 2 0 2 3 3 3 4 4 5 6 8 10 11 11 10 10 12 11 11 12 12 12
26 25 26 27 27 26 25 25 25 22 21 19 17 15 12 7 4 4 4 3 2 3 3 3 3 3 4 5 7 8 10 10 9 8 9 13 11 13 14 13 13 14 13
24 23 25 25 25 24 21 21 22 21 19 17 15 12 10 7 4 3 3 2 3 5 5 4 4 6 8 8 9 12 13 15 17 15 13 12 11 13 14 14 13 14 14
22 22 21 22 21 21 19 18 18 18 18 16 13 10 7 7 4 1 1 3 4 4 3 4 5 7 9 12 13 13 14 15 21 18 17 16 13 10 13 11 8 13 16
21 19 20 19 20 20 19 17 16 15 14 13 10 8 7 6 6 2 0 1 2 3 4 6 8 10 12 12 12 13 14 15 21 24 19 19 16 15 14 11 15 14 15
22 22 21 22 21 20 19 16 15 14 12 10 7 6 6 4 4 2 1 3 4 5 6 8 9 11 14 16 17 16 17 22 21 17 9 11 12 12 18 14 14 14 12
22 22 22 22 21 21 19 16 16 14 12 9 7 6 4 3 1 1 3 5 7 9 11 12 14 15 15 17 17 18 15 14 15 12 9 12 14 15 12 13 13 12 15
25 23 22 21 21 20 19 17 16 14 11 9 7 5 3 1 3 4 5 7 10 10 10 12 13 11 12 12 12 12 13 12 17 12 5 2 8 8 9 12 10 12 15
27 26 25 23 22 20 19 18 16 13 11 8 7 5 2 4 5 5 8 9 10 9 9 10 11 12 13 10 8 11 11 10 9 10 6 7 8 5 9 7 8 12 13
26 29 28 27 25 20 17 16 13 12 10 8 6 3 1 5 5 6 4 3 6 7 7 7 10 13 13 12 9 9 13 12 4 7 9 13 5 6 13 8 10 10 10
31 32 30 28 27 24 19 15 12 13 11 9 6 4 1 3 2 4 4 3 5 7 7 9 12 14 14 13 9 13 15 12 7 9 10 11 9 6 9 12 9 8 8
30 32 33 32 29 27 23 18 13 10 7 5 7 5 3 3 5 6 8 8 8 7 8 10 13 15 15 12 12 13 10 10 4 15 11 12 12 5 4 9 7 8 9
26 29 29 30 31 28 26 21 18 13 10 8 10 7 5 4 5 5 7 9 8 7 11 14 16 16 16 12 13 12 11 2 9 11 10 9 8 7 5 6 10 11 11
28 27 27 27 30 29 24 22 20 15 13 12 14 9 6 3 4 4 5 6 7 9 12 14 14 17 14 14 10 8 13 11 8 8 10 11 10 10 7 8 9 12 15
29 28 27 27 27 28 24 21 19 17 15 13 13 11 8 6 2 4 4 2 5 9 12 15 16 15 9 15 9 13 15 14 11 11 11 10 11 10 11 11 13 18 17
28 29 30 28 26 28 27 25 22 22 20 17 14 13 12 9 7 3 3 1 4 7 12 15 17 15 8 13 3 11 16 18 15 14 15 13 15 17 15 15 16 16 16
32 32 32 32 28 28 28 27 23 23 21 19 17 17 18 15 12 7 5 4 5 8 10 13 14 13 7 9 5 3 2 7 17 14 13 17 17 16 17 17 16 16 17
28 33 33 33 32 29 27 25 19 17 22 22 21 20 19 19 18 12 8 7 6 8 10 12 13 10 7 5 4 2 2 2 3 11 13 15 15 16 17 17 17 18 19
28 29 30 31 32 31 27 25 23 21 21 26 23 20 18 16 16 15 13 10 9 9 10 12 13 9 8 7 2 3 3 5 3 2 7 10 12 15 16 16 17 19 20
26 30 30 29 29 31 29 26 24 23 22 19 21 19 18 18 21 17 17 16 14 13 12 12 12 4 5 5 2 1 4 5 7 3 2 4 11 11 14 14 15 18 19
22 24 29 29 29 29 28 27 25 25 23 21 19 19 17 13 10 14 18 17 18 14 11 10 8 4 1 2 1 1 2 2 5 5 3 2 6 5 9 11 12 15 16
Wind_Direction
141 144 139 133 131 132 132 133 132 132 131 135 135 136 134 131 133 131 126 124 119 114 107 102 76 47 37 49 59 70 72 77 83 95 100 124 124 122 129 112 129 135 129
147 148 145 139 135 133 136 133 134 136 134 137 139 138 134 128 128 130 129 125 119 113 111 85 45 36 48 60 50 70 65 77 87 86 103 142 161 163 158 160 131 150 149
148 147 143 144 141 138 138 138 138 137 137 140 141 136 130 130 134 130 125 118 107 96 81 62 52 45 45 40 54 72 66 43 52 72 44 249 211 207 212 230 211 178 171
149 148 143 144 143 141 140 140 139 133 132 134 135 133 132 136 134 130 125 114 110 86 81 65 17 4 26 49 67 70 45 23 4 353 323 280 258 231 225 203 198 195 184
153 150 147 147 144 142 142 140 138 137 138 138 133 134 137 136 134 134 135 139 136 133 99 356 3 24 55 62 46 39 336 320 324 316 296 284 265 238 230 216 212 207 201
154 153 153 151 148 145 145 144 144 143 141 141 141 141 139 143 148 151 144 138 137 143 46 44 54 58 52 22 9 342 329 331 328 308 299 285 269 250 245 234 227 220 211
158 158 157 156 152 151 147 147 145 144 144 145 145 143 142 148 167 165 148 154 127 90 74 64 55 30 17 3 349 338 334 328 306 324 334 320 279 252 252 243 236 232 225
159 161 161 159 156 153 149 148 147 145 145 146 146 147 145 142 168 184 168 136 110 104 95 64 27 3 354 348 350 347 343 332 320 304 308 326 320 261 261 256 243 239 239
161 165 163 160 156 155 155 153 150 149 148 149 151 148 148 127 137 181 146 109 111 86 51 23 2 354 348 345 359 357 344 323 313 303 299 301 315 267 267 263 267 259 248
164 168 167 163 161 161 159 157 156 151 151 153 155 144 146 128 115 104 312 75 45 49 27 6 1 352 345 344 339 334 342 321 303 305 303 325 312 286 275 259 250 255 249
168 173 174 171 169 166 165 163 160 156 160 159 158 151 144 143 120 104 328 336 356 347 350 343 342 344 333 325 329 342 344 331 327 335 351 304 303 291 261 275 267 267 273
175 178 177 182 174 173 166 168 166 164 167 167 167 163 147 147 115 36 337 335 329 332 326 330 331 331 342 347 351 345 337 335 352 326 316 289 302 310 310 284 273 282 284
179 180 185 182 182 177 173 175 172 171 175 174 172 182 201 267 325 302 320 332 336 333 338 344 356 360 353 1 6 15 23 28 18 9 71 45 299 310 290 303 303 306 291
184 186 188 187 185 184 181 182 176 177 170 170 179 179 229 300 317 320 316 318 330 348 11 19 14 20 31 18 12 12 29 30 25 74 64 3 15 288 321 341 343 323 302
188 192 192 188 189 186 189 185 178 179 182 183 182 188 303 310 313 323 325 348 333 18 13 35 30 20 12 8 11 357 357 351 11 19 359 344 324 335 358 340 330 331 325
192 198 198 193 193 190 192 187 186 193 187 180 196 200 342 360 117 74 69 73 53 34 62 34 18 7 5 7 358 355 10 26 40 19 0 9 359 302 353 341 345 343 345
196 198 200 198 199 197 198 197 194 199 192 181 189 185 156 118 93 71 84 71 61 74 34 18 13 5 4 1 355 2 4 21 52 18 25 13 26 36 333 11 0 24 27
200 203 202 203 203 203 201 210 211 213 222 210 193 179 163 130 124 85 88 56 60 42 17 4 7 359 360 360 357 4 17 343 8 19 22 42 64 45 48 35 53 51 53
204 204 202 199 200 201 204 206 209 213 219 211 206 192 188 159 144 127 99 69 52 23 6 1 1 359 359 3 15 31 52 41 15 23 42 76 65 83 60 68 74 63 63
205 207 205 202 204 204 199 201 208 213 218 214 209 211 210 217 202 154 118 74 21 12 5 2 353 355 6 10 51 76 53 52 64 59 69 82 84 68 87 73 72 72 65
205 208 206 201 205 200 197 194 198 207 214 221 221 225 227 238 238 228 195 296 349 357 356 356 350 356 3 14 59 77 71 58 66 75 83 85 80 86 77 68 65 61 62
199 207 209 208 207 208 205 200 198 208 220 228 236 246 247 245 249 245 237 253 308 321 334 346 347 347 339 6 21 83 68 52 60 63 76 83 82 78 71 68 66 63 61
194 202 207 209 209 213 211 205 204 218 229 240 247 244 244 253 245 245 244 252 283 305 325 336 333 328 331 342 1 92 103 128 86 51 70 82 77 74 73 68 64 60 56
197 198 207 210 209 214 216 206 202 206 214 229 235 233 240 248 247 245 245 255 272 291 308 320 320 302 318 329 333 44 97 138 136 138 67 72 76 76 74 70 67 65 61
190 193 205 211 209 213 215 214 207 210 218 227 229 238 251 264 262 241 244 252 266 276 298 306 312 274 314 317 357 133 106 109 134 130 125 99 85 77 79 74 68 68 62
190 190 203 208 208 212 214 214 215 212 216 226 236 239 246 264 232 231 243 257 264 271 280 297 302 297 269 283 281 179 149 157 150 149 115 107 126 99 89 80 81 72 66
Height
804 804 805 806 808 810 813 815 816 817 820 822 824 825 827 828 829 831 833 834 835 836 837 837 838 838 837 836 835 834 834 833 833 833 833 832 831 830 830 830 830 830 829
803 804 806 808 810 812 814 817 820 820 823 825 827 829 829 831 833 834 835 836 838 838 838 839 839 839 838 837 836 836 835 834 833 833 833 832 831 830 830 830 830 830 831
804 807 808 809 811 813 816 819 821 823 824 826 828 831 833 834 834 835 837 838 839 839 839 840 839 839 838 838 837 835 834 834 834 834 833 832 832 831 830 830 830 829 830
805 808 810 811 813 815 817 820 822 825 827 829 831 833 835 835 836 837 837 839 840 840 840 840 839 838 838 837 836 836 835 835 834 833 832 831 830 830 829 829 830 829 829
807 810 812 814 815 818 819 821 824 826 828 829 832 835 836 838 838 838 838 838 839 840 840 838 837 838 838 837 837 837 835 834 833 833 831 831 829 828 828 829 829 829 830
809 812 814 816 818 820 821 821 824 827 830 831 832 835 838 839 840 839 839 838 838 838 838 837 837 837 838 838 838 837 837 836 834 832 830 829 828 829 829 829 829 829 829
812 813 816 818 821 823 824 825 826 829 830 833 834 835 837 840 841 841 840 839 838 838 839 838 838 838 839 839 838 838 837 836 832 830 830 829 828 828 828 828 829 829 829
814 817 818 821 824 827 829 829 830 831 834 835 836 838 838 839 841 842 840 840 839 838 838 839 838 839 839 839 839 837 836 835 832 830 830 828 826 827 828 828 828 829 828
817 819 821 823 827 829 832 834 834 835 835 837 838 839 840 840 842 843 843 841 840 840 840 839 839 839 839 838 838 837 836 832 829 829 829 827 825 825 826 827 825 827 826
819 823 825 827 829 832 834 836 837 839 840 840 840 841 841 842 842 844 844 843 842 841 840 839 839 839 838 838 838 835 835 832 829 828 828 827 823 821 823 824 825 822 823
820 823 825 827 830 833 835 837 839 840 842 842 843 843 844 844 844 845 845 845 844 842 841 840 840 840 839 838 835 833 831 828 827 826 823 822 820 816 820 823 824 822 821
821 823 826 829 832 833 835 837 839 842 843 843 844 845 846 846 846 846 847 846 845 844 842 840 839 838 837 836 834 833 830 826 824 821 821 820 818 819 820 822 823 823 822
819 824 826 829 832 835 837 838 840 842 843 844 844 845 847 847 847 847 848 846 845 844 842 841 839 838 837 835 833 831 827 825 824 819 818 817 819 820 820 823 822 822 821
818 822 825 829 832 835 837 838 840 842 844 845 845 846 847 848 847 848 848 847 845 844 843 842 840 839 837 835 832 830 826 825 825 821 821 820 820 820 821 821 819 820 819
819 821 823 827 831 835 837 839 841 843 844 845 846 847 848 849 848 848 848 847 846 846 844 843 841 839 837 834 832 829 828 826 825 823 823 820 820 821 821 820 819 818 817
814 818 822 826 830 833 836 839 842 844 844 845 846 848 848 849 849 849 849 848 847 846 846 844 842 839 837 834 831 829 827 827 825 825 823 822 821 821 821 821 820 819 819
812 815 818 823 828 832 835 839 842 844 845 846 847 848 849 849 850 850 850 849 848 847 846 844 841 839 836 834 831 829 827 828 827 826 824 824 823 822 823 823 823 820 820
812 814 818 821 825 830 834 837 840 843 845 845 847 848 848 849 850 851 850 849 848 847 846 843 840 838 836 834 831 829 827 827 828 827 827 826 826 825 825 825 824 823 823
809 814 816 820 823 827 832 836 840 842 844 845 846 847 848 849 850 850 850 850 849 847 845 843 841 838 836 835 831 830 829 828 828 829 829 828 828 828 828 828 828 827 827
806 810 815 819 821 826 830 834 838 841 843 844 845 846 847 848 849 850 850 850 849 847 846 843 841 839 837 836 833 832 832 831 831 830 830 831 831 831 831 831 830 829 829
804 808 811 815 818 822 826 830 834 837 841 843 843 845 847 847 848 850 850 850 849 847 846 844 842 840 837 837 836 836 836 836 834 835 835 834 834 835 835 834 833 832 832
797 803 808 811 815 819 823 826 830 835 839 841 842 843 844 845 847 849 850 849 849 847 846 845 843 841 839 838 837 837 840 841 840 840 840 839 838 838 838 837 836 836 835
795 798 804 807 812 816 821 825 828 833 836 839 840 840 841 843 845 847 848 848 849 847 846 845 844 842 840 839 839 837 840 844 842 844 844 843 842 841 840 840 840 840 839
791 795 801 805 808 813 818 821 824 828 831 834 836 838 840 841 842 845 847 847 847 847 847 845 844 843 841 840 838 837 836 837 843 846 846 846 845 844 844 843 844 844 843
788 790 796 802 806 810 814 818 821 825 829 832 834 835 837 839 839 842 844 845 845 845 846 844 843 843 842 840 839 837 836 837 839 842 846 848 848 848 847 847 848 848 846
785 789 793 798 802 807 811 815 818 822 826 830 832 834 836 837 837 839 841 842 843 844 844 843 842 843 841 840 839 838 837 837 838 839 845 849 850 851 851 851 851 851 851